Regional Weather Roundup
Issued by NWS

Home | Current Version | Previous Version | Graphics & Text | Print | Product List | Glossary On
Versions: 1 2 3 4 5 6 7 8 9 10 11 12 13 14 15 16 17 18 19 20 21 22 23 24 25 26 27 28 29 30 31 32 33 34 35 36 37 38 39 40 41 42 43 44 45 46 47 48 49 50
439
ASUS43 KIND 060459
RWRIN

WEATHER ROUNDUP FOR INDIANA
NATIONAL WEATHER SERVICE INDIANAPOLIS IN
1200 AM EST TUE DEC 06 2016

NOTE: "FAIR" INDICATES FEW OR NO CLOUDS BELOW 12,000 FEET WITH NO
SIGNIFICANT WEATHER AND/OR OBSTRUCTIONS TO VISIBILITY.

* - STATION DOES NOT REPORT WEATHER SUCH AS PRECIPITATION OR FOG.

+ - STATION NOT QUALITY CONTROLLED BY THE NATIONAL WEATHER SERVICE.
    USE DATA WITH CAUTION...ESPECIALLY DEWPOINT AND RELATIVE
    HUMIDITY OBSERVATIONS.

INZ001>003-010>013-019-020-060600-
NORTHWEST INDIANA

CITY           SKY/WX    TMP DP  RH WIND       PRES   REMARKS

$$

LMZ046-743>745-060600-
SOUTHERN LAKE MICHIGAN

STATION/POSITION TIME  TEMP    WIND        PRES    WAVE
                       AIR SEA DIR/SP/G            HT
                 (UTC) (F)     (DEG/KT/KT) (MB)    (FT)
BURNS HARBOR     0440   33     100/ 11/ 14 1014.2F

$$

INZ004-005-014>016-021>024-060600-
NORTH CENTRAL INDIANA

CITY           SKY/WX    TMP DP  RH WIND       PRES   REMARKS
GOSHEN         CLOUDY    29  25  85 NE6       29.97F FOG     WCI  23
SOUTH BEND     CLEAR     30  29  96 E8        29.97F WCI  22

$$

INZ006>009-017-018-025>027-060600-
NORTHEAST INDIANA

CITY           SKY/WX    TMP DP  RH WIND       PRES   REMARKS
ANGOLA *+      CLEAR     28  23  80 SE6       29.99S WCI  22
FORT WAYNE     MOCLDY    30  27  88 E8        29.97F WCI  22
KENDALLVILLE + CLOUDY    30  28  94 E5        29.98F FOG     WCI  25

$$

INZ028-029-035-036-043>045-051>053-060600-
WEST CENTRAL INDIANA

CITY           SKY/WX    TMP DP  RH WIND       PRES   REMARKS
CRAWFORDSVL +  CLOUDY    32  32 100 E7        29.90S WCI  26
GREENCASTLE +  CLOUDY    34  34 100 E10       29.88F WCI  26
LAFAYETTE      PTCLDY    32  31  96 NE7       29.91F WCI  26
TERRE HAUTE    PTCLDY    35  31  85 NE5       29.87F WCI  31

$$

INZ030>032-037>040-046>048-054>057-064-065-060600-
CENTRAL INDIANA

CITY           SKY/WX    TMP DP  RH WIND       PRES   REMARKS
GREENWOOD *+   CLOUDY    34  32  93 E8        29.90F WCI  27
INDIANAPOLIS   CLOUDY    35  31  85 E12       29.89F WCI  27
-EAGLE CREEK   CLEAR     35  30  82 E8        29.90F WCI  29
KOKOMO +       PTCLDY    31  30  96 E8        29.93F FOG     WCI  23
SHELBYVILLE    PTCLDY    36  31  82 E9        29.89F

$$

INZ033-034-041-042-049-050-058-059-060600-
EAST CENTRAL INDIANA

CITY           SKY/WX    TMP DP  RH WIND       PRES   REMARKS
MUNCIE         CLEAR     32  28  85 E7        29.93F WCI  26

$$

INZ060-061-067>069-081>083-085>088-060600-
SOUTHWEST INDIANA

CITY           SKY/WX    TMP DP  RH WIND       PRES   REMARKS
EVANSVILLE     CLOUDY    42  36  79 E6        29.81F
HUNTINGBURG *+ CLOUDY    43  36  75 E10       29.81F

$$

INZ062-063-066-070>080-084-089>092-060600-
SOUTH CENTRAL AND SOUTHEAST INDIANA

CITY           SKY/WX    TMP DP  RH WIND       PRES   REMARKS
BLOOMINGTON    CLOUDY    39  33  79 E8        29.84F
MADISON *+     PTCLDY    41  34  75 E8        29.87F
SEYMOUR +      CLOUDY    41  36  81 E5        29.85F

$$





USA.gov is the U.S. government's official web portal to all federal, state and local government web resources and services.